| time (UTC) | temp C | wind direction | speed KPH | gust KPH | rain 1hr cm | rain 24hr cm | rain mn cm | humidity % | barometer mb |
| 20260508021550 | 7 | 100 | 3.2 | 6.4 | 0.00 | 0.00 | 0.00 | 59 | 1017.8 |
| 20260508020530 | 8 | 119 | 3.2 | 3.2 | 0.00 | 0.00 | 0.00 | 55 | 1017.8 |
| 20260508015530 | 9 | 81 | 3.2 | 4.8 | 0.00 | 0.00 | 0.00 | 55 | 1017.7 |
| 20260508014530 | 10 | 7 | 0.0 | 0.0 | 0.00 | 0.00 | 0.00 | 51 | 1017.5 |
| 20260508013531 | 10 | 313 | 3.2 | 3.2 | 0.00 | 0.00 | 0.00 | 50 | 1017.4 |
| 20260508012521 | 11 | 328 | 4.8 | 9.7 | 0.00 | 0.00 | 0.00 | 47 | 1017.4 |
| 20260508011522 | 12 | 324 | 9.7 | 14.5 | 0.00 | 0.00 | 0.00 | 42 | 1017.3 |
| 20260508010516 | 12 | 325 | 11.3 | 17.7 | 0.00 | 0.00 | 0.00 | 36 | 1017.3 |
| 20260508005522 | 13 | 327 | 9.7 | 14.5 | 0.00 | 0.00 | 0.00 | 36 | 1017.2 |
| 20260508003522 | 13 | 340 | 9.7 | 14.5 | 0.00 | 0.00 | 0.00 | 35 | 1017.1 |
| 20260508002520 | 13 | 347 | 14.5 | 22.5 | 0.00 | 0.00 | 0.00 | 32 | 1017.1 |
| 20260508001517 | 13 | 321 | 9.7 | 14.5 | 0.00 | 0.00 | 0.00 | 35 | 1017.0 |
| 20260508000517 | 13 | 314 | 9.7 | 14.5 | 0.00 | 0.00 | 0.00 | 36 | 1017.0 |
| 20260507235538 | 14 | 316 | 12.9 | 20.9 | 0.00 | 0.00 | 0.00 | 34 | 1017.0 |
| 20260507234518 | 14 | 353 | 6.4 | 14.5 | 0.00 | 0.00 | 0.00 | 34 | 1017.0 |
| 20260507233524 | 14 | 1 | 9.7 | 14.5 | 0.00 | 0.00 | 0.00 | 32 | 1017.0 |
| 20260507232538 | 14 | 9 | 11.3 | 20.9 | 0.00 | 0.00 | 0.00 | 32 | 1016.9 |
| 20260507231518 | 13 | 30 | 9.7 | 17.7 | 0.00 | 0.00 | 0.00 | 34 | 1017.0 |
| 20260507230518 | 14 | 354 | 9.7 | 16.1 | 0.00 | 0.00 | 0.00 | 33 | 1017.0 |
| 20260507225518 | 13 | 1 | 9.7 | 14.5 | 0.00 | 0.00 | 0.00 | 33 | 1017.1 |
| 20260507224519 | 13 | 21 | 11.3 | 17.7 | 0.00 | 0.00 | 0.00 | 34 | 1017.2 |
| 20260507223518 | 13 | 301 | 6.4 | 14.5 | 0.00 | 0.00 | 0.00 | 32 | 1017.3 |
| 20260507222559 | 13 | 25 | 9.7 | 14.5 | 0.00 | 0.00 | 0.00 | 34 | 1017.3 |
| 20260507221539 | 13 | 350 | 6.4 | 11.3 | 0.00 | 0.00 | 0.00 | 32 | 1017.5 |
| 20260507220519 | 13 | 337 | 6.4 | 12.9 | 0.00 | 0.00 | 0.00 | 32 | 1017.5 |
| 20260507215519 | 13 | 316 | 8.0 | 12.9 | 0.00 | 0.00 | 0.00 | 32 | 1017.7 |
| 20260507214520 | 13 | 308 | 6.4 | 11.3 | 0.00 | 0.00 | 0.00 | 32 | 1017.9 |
| 20260507213520 | 12 | 278 | 4.8 | 9.7 | 0.00 | 0.00 | 0.00 | 31 | 1018.0 |
| 20260507212539 | 12 | 69 | 4.8 | 8.0 | 0.00 | 0.00 | 0.00 | 33 | 1018.2 |
| 20260507211520 | 12 | 180 | 8.0 | 14.5 | 0.00 | 0.00 | 0.00 | 35 | 1018.4 |
| 20260507210520 | 11 | 201 | 4.8 | 9.7 | 0.00 | 0.00 | 0.00 | 35 | 1018.7 |
| 20260507205520 | 11 | 195 | 8.0 | 17.7 | 0.00 | 0.00 | 0.00 | 35 | 1018.8 |
| 20260507204541 | 11 | 218 | 8.0 | 14.5 | 0.00 | 0.00 | 0.00 | 36 | 1019.0 |
| 20260507203521 | 10 | 195 | 9.7 | 14.5 | 0.00 | 0.00 | 0.00 | 36 | 1019.1 |
| 20260507202521 | 10 | 181 | 9.7 | 14.5 | 0.00 | 0.00 | 0.00 | 37 | 1019.2 |
| 20260507201521 | 10 | 199 | 9.7 | 14.5 | 0.00 | 0.00 | 0.00 | 40 | 1019.3 |
| 20260507200521 | 9 | 178 | 9.7 | 16.1 | 0.00 | 0.00 | 0.00 | 39 | 1019.4 |
| 20260507195603 | 8 | 193 | 9.7 | 12.9 | 0.00 | 0.00 | 0.00 | 43 | 1019.5 |
| 20260507194522 | 8 | 187 | 9.7 | 16.1 | 0.00 | 0.00 | 0.00 | 41 | 1019.5 |
| 20260507193516 | 8 | 190 | 9.7 | 12.9 | 0.00 | 0.00 | 0.00 | 40 | 1019.6 |
| 20260507192522 | 7 | 198 | 11.3 | 14.5 | 0.00 | 0.00 | 0.00 | 47 | 1019.8 |
| 20260507191522 | 6 | 200 | 8.0 | 12.9 | 0.00 | 0.00 | 0.00 | 44 | 1020.0 |
| 20260507190522 | 6 | 204 | 9.7 | 12.9 | 0.00 | 0.00 | 0.00 | 49 | 1020.1 |
| 20260507185523 | 6 | 203 | 8.0 | 11.3 | 0.00 | 0.00 | 0.00 | 45 | 1020.2 |
| 20260507184517 | 6 | 200 | 8.0 | 9.7 | 0.00 | 0.00 | 0.00 | 47 | 1020.4 |
| 20260507183517 | 6 | 217 | 6.4 | 9.7 | 0.00 | 0.00 | 0.00 | 54 | 1020.5 |
| 20260507182517 | 6 | 203 | 8.0 | 9.7 | 0.00 | 0.00 | 0.00 | 51 | 1020.5 |
| 20260507181517 | 6 | 218 | 4.8 | 8.0 | 0.00 | 0.00 | 0.00 | 55 | 1020.6 |
| 20260507180518 | 6 | 220 | 6.4 | 8.0 | 0.00 | 0.00 | 0.00 | 53 | 1020.7 |
| 20260507175525 | 6 | 203 | 3.2 | 4.8 | 0.00 | 0.00 | 0.00 | 45 | 1020.8 |
| 20260507174524 | 5 | 193 | 4.8 | 6.4 | 0.00 | 0.00 | 0.00 | 50 | 1020.8 |
| 20260507173524 | 5 | 185 | 3.2 | 4.8 | 0.00 | 0.00 | 0.00 | 50 | 1021.0 |
| 20260507172524 | 5 | 172 | 3.2 | 4.8 | 0.00 | 0.00 | 0.00 | 49 | 1021.0 |
| 20260507171525 | 4 | 170 | 3.2 | 6.4 | 0.00 | 0.00 | 0.00 | 50 | 1021.1 |
| 20260507170525 | 4 | 195 | 4.8 | 6.4 | 0.00 | 0.00 | 0.00 | 48 | 1021.1 |
| 20260507165525 | 5 | 158 | 3.2 | 3.2 | 0.00 | 0.00 | 0.00 | 43 | 1021.1 |
| 20260507164525 | 4 | 141 | 3.2 | 6.4 | 0.00 | 0.00 | 0.00 | 43 | 1021.2 |
| 20260507163525 | 3 | 218 | 3.2 | 4.8 | 0.00 | 0.00 | 0.00 | 44 | 1021.3 |
| 20260507162606 | 2 | 230 | 1.6 | 4.8 | 0.00 | 0.00 | 0.00 | 44 | 1021.4 |
| 20260507161526 | 2 | 243 | 3.2 | 4.8 | 0.00 | 0.00 | 0.00 | 49 | 1021.4 |
| 20260507160520 | 2 | 254 | 6.4 | 9.7 | 0.00 | 0.00 | 0.00 | 53 | 1021.5 |
| 20260507155526 | 3 | 233 | 3.2 | 4.8 | 0.00 | 0.00 | 0.00 | 50 | 1021.4 |
| 20260507154546 | 3 | 176 | 1.6 | 1.6 | 0.00 | 0.00 | 0.00 | 46 | 1021.5 |
| 20260507153527 | 3 | 249 | 3.2 | 4.8 | 0.00 | 0.00 | 0.00 | 52 | 1021.6 |
| 20260507152527 | 3 | 285 | 1.6 | 3.2 | 0.00 | 0.00 | 0.00 | 51 | 1021.6 |
| 20260507151547 | 2 | 66 | 1.6 | 3.2 | 0.00 | 0.00 | 0.00 | 51 | 1021.7 |
| 20260507150527 | 1 | 121 | 1.6 | 3.2 | 0.00 | 0.00 | 0.00 | 56 | 1021.7 |
| 20260507145527 | 0 | 170 | 4.8 | 6.4 | 0.00 | 0.00 | 0.00 | 58 | 1021.6 |
| 20260507144528 | -1 | 149 | 3.2 | 4.8 | 0.00 | 0.00 | 0.00 | 60 | 1021.7 |
| 20260507143528 | -1 | 150 | 3.2 | 4.8 | 0.00 | 0.00 | 0.00 | 60 | 1021.6 |
| 20260507142528 | -1 | 245 | 3.2 | 6.4 | 0.00 | 0.00 | 0.00 | 62 | 1021.6 |
| 20260507141528 | -2 | 194 | 4.8 | 6.4 | 0.00 | 0.00 | 0.00 | 66 | 1021.4 |
| 20260507140522 | -1 | 213 | 4.8 | 8.0 | 0.00 | 0.00 | 0.00 | 61 | 1021.5 |
| 20260507135543 | -1 | 146 | 6.4 | 9.7 | 0.00 | 0.00 | 0.00 | 60 | 1021.4 |
| 20260507134523 | -2 | 133 | 9.7 | 12.9 | 0.00 | 0.00 | 0.00 | 64 | 1021.5 |
| 20260507133517 | -3 | 210 | 6.4 | 9.7 | 0.00 | 0.00 | 0.00 | 67 | 1021.4 |
| 20260507132518 | -3 | 138 | 11.3 | 12.9 | 0.00 | 0.00 | 0.00 | 65 | 1021.3 |
| 20260507131517 | -5 | 143 | 9.7 | 11.3 | 0.00 | 0.00 | 0.00 | 70 | 1021.4 |
| 20260507130517 | -6 | 147 | 8.0 | 9.7 | 0.00 | 0.00 | 0.00 | 72 | 1021.4 |
| 20260507125518 | -8 | 131 | 6.4 | 8.0 | 0.00 | 0.00 | 0.00 | 76 | 1021.5 |
| 20260507124519 | -10 | 146 | 9.7 | 14.5 | 0.00 | 0.00 | 0.00 | 81 | 1021.5 |
| 20260507123518 | -10 | 148 | 8.0 | 9.7 | 0.00 | 0.00 | 0.00 | 81 | 1021.5 |
| 20260507122518 | -10 | 152 | 8.0 | 9.7 | 0.00 | 0.00 | 0.00 | 81 | 1021.3 |
| 20260507121530 | -8 | 100 | 3.2 | 8.0 | 0.00 | 0.00 | 0.00 | 78 | 1021.2 |
| 20260507120539 | -9 | 149 | 8.0 | 9.7 | 0.00 | 0.00 | 0.00 | 78 | 1021.2 |
| 20260507115519 | -10 | 167 | 11.3 | 16.1 | 0.00 | 0.00 | 0.00 | 85 | 1021.1 |
| 20260507114519 | -10 | 173 | 8.0 | 11.3 | 0.00 | 0.00 | 0.00 | 83 | 1021.2 |
| 20260507113531 | -9 | 106 | 3.2 | 8.0 | 0.00 | 0.00 | 0.00 | 83 | 1021.0 |
| 20260507112519 | -10 | 141 | 8.0 | 9.7 | 0.00 | 0.00 | 0.00 | 87 | 1021.1 |
| 20260507111519 | -10 | 144 | 6.4 | 9.7 | 0.00 | 0.00 | 0.00 | 86 | 1021.1 |
| 20260507110532 | -9 | 160 | 1.6 | 3.2 | 0.00 | 0.00 | 0.00 | 84 | 1021.1 |
| 20260507105520 | -8 | 141 | 6.4 | 8.0 | 0.00 | 0.00 | 0.00 | 84 | 1021.1 |
| 20260507104520 | -7 | 147 | 8.0 | 12.9 | 0.00 | 0.00 | 0.00 | 83 | 1021.2 |
| 20260507103520 | -7 | 145 | 8.0 | 9.7 | 0.00 | 0.00 | 0.00 | 83 | 1021.2 |
| 20260507102520 | -8 | 134 | 8.0 | 12.9 | 0.00 | 0.00 | 0.00 | 84 | 1021.3 |
| 20260507101522 | -9 | 152 | 9.7 | 12.9 | 0.00 | 0.00 | 0.00 | 85 | 1021.4 |
| 20260507100541 | -9 | 179 | 9.7 | 12.9 | 0.00 | 0.00 | 0.00 | 86 | 1021.5 |
| 20260507095521 | -7 | 188 | 6.4 | 9.7 | 0.00 | 0.00 | 0.00 | 83 | 1021.6 |
| 20260507094533 | -8 | 72 | 1.6 | 6.4 | 0.00 | 0.00 | 0.00 | 86 | 1021.6 |
| 20260507093538 | -9 | 63 | 4.8 | 6.4 | 0.00 | 0.00 | 0.00 | 85 | 1021.5 |
| 20260507092521 | -11 | 182 | 8.0 | 12.9 | 0.00 | 0.00 | 0.00 | 87 | 1021.6 |
| 20260507091522 | -9 | 224 | 6.4 | 11.3 | 0.00 | 0.00 | 0.00 | 83 | 1021.5 |
| 20260507090522 | -9 | 159 | 4.8 | 8.0 | 0.00 | 0.00 | 0.00 | 86 | 1021.3 |
| 20260507085518 | -9 | 119 | 4.8 | 6.4 | 0.00 | 0.00 | 0.00 | 87 | 1021.3 |
| 20260507084519 | -10 | 129 | 4.8 | 6.4 | 0.00 | 0.00 | 0.00 | 88 | 1021.3 |
| 20260507083522 | -10 | 146 | 8.0 | 11.3 | 0.00 | 0.00 | 0.00 | 85 | 1021.3 |
| 20260507082516 | -8 | 129 | 4.8 | 8.0 | 0.00 | 0.00 | 0.00 | 85 | 1021.2 |
| 20260507081517 | -8 | 144 | 6.4 | 9.7 | 0.00 | 0.00 | 0.00 | 84 | 1021.2 |
| 20260507080519 | -8 | 144 | 4.8 | 4.8 | 0.00 | 0.00 | 0.00 | 86 | 1021.3 |
| 20260507075523 | -8 | 155 | 4.8 | 9.7 | 0.00 | 0.00 | 0.00 | 86 | 1021.4 |
| 20260507074544 | -9 | 145 | 8.0 | 9.7 | 0.00 | 0.00 | 0.00 | 87 | 1021.3 |
| 20260507073520 | -7 | 154 | 4.8 | 6.4 | 0.00 | 0.00 | 0.00 | 84 | 1021.5 |
| 20260507072520 | -8 | 113 | 1.6 | 3.2 | 0.00 | 0.00 | 0.00 | 86 | 1021.6 |
| 20260507071620 | -8 | 86 | 1.6 | 4.8 | 0.00 | 0.00 | 0.00 | 86 | 1021.4 |
| 20260507070521 | -8 | 221 | 1.6 | 3.2 | 0.00 | 0.00 | 0.00 | 87 | 1021.3 |
| 20260507065520 | -7 | 241 | 3.2 | 4.8 | 0.00 | 0.00 | 0.00 | 85 | 1021.2 |
| 20260507064521 | -7 | 226 | 4.8 | 6.4 | 0.00 | 0.00 | 0.00 | 85 | 1021.2 |
| 20260507063525 | -6 | 271 | 6.4 | 11.3 | 0.00 | 0.00 | 0.00 | 80 | 1021.0 |
| 20260507062541 | -6 | 114 | 4.8 | 8.0 | 0.00 | 0.00 | 0.00 | 84 | 1021.0 |
| 20260507061543 | -5 | 109 | 3.2 | 8.0 | 0.00 | 0.00 | 0.00 | 81 | 1020.9 |
| 20260507060519 | -5 | 132 | 6.4 | 9.7 | 0.00 | 0.00 | 0.00 | 81 | 1020.8 |
| 20260507055519 | -5 | 126 | 8.0 | 9.7 | 0.00 | 0.00 | 0.00 | 82 | 1020.7 |
| 20260507054519 | -6 | 141 | 9.7 | 12.9 | 0.00 | 0.00 | 0.00 | 85 | 1020.6 |
| 20260507053519 | -7 | 165 | 8.0 | 11.3 | 0.00 | 0.00 | 0.00 | 85 | 1020.7 |
| 20260507052520 | -7 | 189 | 6.4 | 11.3 | 0.00 | 0.00 | 0.00 | 87 | 1020.6 |
| 20260507051543 | -7 | 151 | 3.2 | 6.4 | 0.00 | 0.00 | 0.00 | 86 | 1020.5 |
| 20260507050600 | -6 | 191 | 9.7 | 12.9 | 0.00 | 0.00 | 0.00 | 85 | 1020.6 |
| 20260507045522 | -5 | 211 | 4.8 | 6.4 | 0.00 | 0.00 | 0.00 | 82 | 1020.7 |
| 20260507044520 | -5 | 136 | 9.7 | 12.9 | 0.00 | 0.00 | 0.00 | 83 | 1020.5 |
| 20260507043520 | -5 | 141 | 8.0 | 11.3 | 0.00 | 0.00 | 0.00 | 84 | 1020.5 |
| 20260507042540 | -6 | 129 | 8.0 | 11.3 | 0.00 | 0.00 | 0.00 | 86 | 1020.5 |
| 20260507041521 | -6 | 135 | 8.0 | 11.3 | 0.00 | 0.00 | 0.00 | 86 | 1020.4 |
| 20260507040521 | -7 | 147 | 8.0 | 9.7 | 0.00 | 0.00 | 0.00 | 86 | 1020.4 |
| 20260507035601 | -7 | 161 | 6.4 | 9.7 | 0.00 | 0.00 | 0.00 | 87 | 1020.5 |
| 20260507034521 | -8 | 172 | 8.0 | 11.3 | 0.00 | 0.00 | 0.00 | 88 | 1020.5 |
| 20260507033521 | -7 | 185 | 9.7 | 12.9 | 0.00 | 0.00 | 0.00 | 87 | 1020.4 |
| 20260507032521 | -7 | 166 | 8.0 | 9.7 | 0.00 | 0.00 | 0.00 | 88 | 1020.3 |
| 20260507031522 | -7 | 172 | 8.0 | 9.7 | 0.00 | 0.00 | 0.00 | 87 | 1020.2 |
| 20260507030522 | -7 | 181 | 6.4 | 8.0 | 0.00 | 0.00 | 0.00 | 87 | 1020.2 |
| 20260507025522 | -7 | 192 | 9.7 | 11.3 | 0.00 | 0.00 | 0.00 | 87 | 1020.1 |
| 20260507024516 | -6 | 214 | 4.8 | 8.0 | 0.00 | 0.00 | 0.00 | 87 | 1019.9 |
| 20260507023522 | -5 | 201 | 6.4 | 11.3 | 0.00 | 0.00 | 0.00 | 86 | 1019.8 |
| 20260507022523 | -5 | 132 | 9.7 | 12.9 | 0.00 | 0.00 | 0.00 | 86 | 1019.8 |